ラッセル第4彗星

94P/Russell 4 (2023)

English version
Home page
Updated on August 10, 2025

---------------------------------------------------------------------

・ プロフィール

・ 写真集

・ 軌道要素

Epoch 2025 May 5.0 TT = JDT 2460800.5
T 2023 May 21.15725 TT                                  Pike
q   2.2255149            (2000.0)            P               Q
n   0.14987452     Peri.   92.37530     -0.95194208     -0.28885831
a   3.5100840      Node    70.84874     +0.22022371     -0.87658503
e   0.3659654      Incl.    6.18762     +0.21285628     -0.38491501
P   6.58
From 2193 observations 1984 Mar. 2-2025 July 29, mean residual 0".6.
     Nongravitational parameters A1 = +0.02, A2 = +0.0014.

・ 星図

・ 光度変化

        H = 14.5  G = 0.15             [    ,-210]  (              〜2022年10月23日)
        m1 = 3.0 + 5 logΔ + 35 log r  [-210, 155]  (2022年10月23日〜2023年10月23日)
        H = 14.5  G = 0.15             [ 155,    ]  (2023年10月23日〜              )

---------------------------------------------------------------------

軌道要素はM.P.E.C. 2025-O159に掲載されたものです。
星図はステラナビゲータ Ver.10 (アストロアーツ) で作成したものです。
光度グラフはComet for Windowsで作成したものです。

---------------------------------------------------------------------

Copyright(C) Seiichi Yoshida (comet@aerith.net). All rights reserved.